EW1065 Weather Reports


Display with metric or nautical units.
time (UTC)temp
F
wind
direction
speed
MPH
gust
MPH
rain 1hr
in
rain 24hr
in
rain mn
in
humidity
%
barometer
mb
20260904035600 75 0.0 0.0 0.00 0.00 0.00 96 1016.3
20260904034559 75 0.0 0.0 0.00 0.00 0.00 96 1016.4
20260904033520 75 0.0 0.0 0.00 0.00 0.00 96 1016.5
20260904032519 76 0.0 0.0 0.00 0.00 0.00 95 1016.7
20260904031519 76 0.0 0.0 0.00 0.00 0.00 95 1016.6
20260904030559 76 0.0 0.0 0.00 0.00 0.00 95 1016.6
20260904025519 76 0.0 0.0 0.00 0.00 0.00 95 1016.6
20260904024520 76 0.0 0.0 0.00 0.00 0.00 95 1016.6
20260904023520 76 0.0 0.0 0.00 0.00 0.00 94 1016.5
20260904022520 76 0.0 0.0 0.00 0.00 0.00 94 1016.5
20260904021559 77 0.0 0.0 0.00 0.00 0.00 93 1016.5
20260904020519 77 0.0 0.0 0.00 0.00 0.00 93 1016.5
20260904015519 77 0.0 0.0 0.00 0.00 0.00 92 1016.3
20260904014519 77 0.0 0.0 0.00 0.00 0.00 91 1016.3
20260904013519 78 0.0 0.0 0.00 0.00 0.00 91 1016.2
20260904012639 78 0.0 0.0 0.00 0.00 0.00 90 1016.0
20260904011600 78 0.0 0.0 0.00 0.00 0.00 90 1016.0
20260904010600 79 0.0 0.0 0.00 0.00 0.00 89 1015.9
20260904005559 79 0.0 0.0 0.00 0.00 0.00 88 1015.7
20260904004519 80 0.0 0.0 0.00 0.00 0.00 88 1015.6
20260904003520 80 0.0 0.0 0.00 0.00 0.00 87 1015.4
20260904002520 81 0.0 0.0 0.00 0.00 0.00 85 1015.3
20260904001519 82 0.0 0.0 0.00 0.00 0.00 84 1015.1
20260904000519 82 0.0 0.0 0.00 0.00 0.00 82 1015.1
20260903235520 84 0.0 0.0 0.00 0.00 0.00 81 1015.1
20260903234519 85 0.0 0.0 0.00 0.00 0.00 79 1015.0
20260903233519 86 0.0 0.0 0.00 0.00 0.00 78 1015.0
20260903232519 88 0.0 0.0 0.00 0.00 0.00 76 1015.0
20260903231519 90 0.0 0.0 0.00 0.00 0.00 73 1014.9
20260903230519 91 0.0 0.0 0.00 0.00 0.00 69 1015.0
20260903225519 94 0.0 0.0 0.00 0.00 0.00 62 1015.0
20260903223520 99 0.0 0.0 0.00 0.00 0.00 52 1015.3
20260903222520 99 0.0 0.0 0.00 0.00 0.00 47 1015.2
20260903221519 99 0.0 0.0 0.00 0.00 0.00 50 1015.3
20260903220600 99 0.0 0.0 0.00 0.00 0.00 50 1015.3
20260903215559 99 0.0 0.0 0.00 0.00 0.00 54 1015.3
20260903214519 98 0.0 0.0 0.00 0.00 0.00 51 1015.2
20260903213519 97 0.0 0.0 0.00 0.00 0.00 56 1015.3
20260903211520 97 0.0 0.0 0.00 0.00 0.00 53 1015.5
20260903210520 98 0.0 0.0 0.00 0.00 0.00 54 1015.5
20260903205559 97 0.0 0.0 0.00 0.00 0.00 57 1015.6
20260903204520 95 0.0 0.0 0.00 0.00 0.00 63 1015.7
20260903203520 95 0.0 0.0 0.00 0.00 0.00 61 1015.8
20260903202520 95 0.0 0.0 0.00 0.00 0.00 63 1015.9
20260903201519 94 0.0 0.0 0.00 0.00 0.00 61 1015.9
20260903200519 95 0.0 0.0 0.00 0.00 0.00 56 1016.2
20260903195520 96 0.0 0.0 0.00 0.00 0.00 55 1016.4
20260903194520 96 0.0 0.0 0.00 0.00 0.00 54 1016.3
20260903193520 95 0.0 0.0 0.00 0.00 0.00 51 1016.4
20260903192520 97 0.0 0.0 0.00 0.00 0.00 49 1016.6
20260903191520 97 0.0 0.0 0.00 0.00 0.00 51 1016.6
20260903190519 97 0.0 0.0 0.00 0.00 0.00 51 1016.7
20260903185519 96 0.0 0.0 0.00 0.00 0.00 52 1016.7
20260903184519 95 0.0 0.0 0.00 0.00 0.00 53 1016.8
20260903183519 96 0.0 0.0 0.00 0.00 0.00 52 1016.8
20260903182520 97 0.0 0.0 0.00 0.00 0.00 50 1016.9
20260903181519 96 0.0 0.0 0.00 0.00 0.00 52 1017.1
20260903180520 96 0.0 0.0 0.00 0.00 0.00 53 1017.2
20260903175520 96 0.0 0.0 0.00 0.00 0.00 51 1017.3
20260903174520 97 0.0 0.0 0.00 0.00 0.00 50 1017.4
20260903173520 97 0.0 0.0 0.00 0.00 0.00 56 1017.5
20260903172520 96 0.0 0.0 0.00 0.00 0.00 55 1017.5
20260903171519 95 0.0 0.0 0.00 0.00 0.00 57 1017.5
20260903170519 96 0.0 0.0 0.00 0.00 0.00 54 1017.7
20260903165559 95 0.0 0.0 0.00 0.00 0.00 51 1017.7
20260903164519 95 0.0 0.0 0.00 0.00 0.00 57 1017.9
20260903163600 94 0.0 0.0 0.00 0.00 0.00 58 1018.0
20260903162519 94 0.0 0.0 0.00 0.00 0.00 56 1018.1
20260903161519 94 0.0 0.0 0.00 0.00 0.00 55 1018.2
20260903160519 93 0.0 0.0 0.00 0.00 0.00 59 1018.1
20260903155520 92 0.0 0.0 0.00 0.00 0.00 57 1018.1
20260903154520 93 0.0 0.0 0.00 0.00 0.00 58 1018.2
20260903153519 92 0.0 0.0 0.00 0.00 0.00 61 1018.2
20260903152520 91 0.0 0.0 0.00 0.00 0.00 62 1018.2
20260903151600 91 0.0 0.0 0.00 0.00 0.00 62 1018.0
20260903150519 90 0.0 0.0 0.00 0.00 0.00 66 1018.1
20260903145519 89 0.0 0.0 0.00 0.00 0.00 69 1018.2
20260903144520 87 0.0 0.0 0.00 0.00 0.00 73 1018.1
20260903143522 86 0.0 0.0 0.00 0.00 0.00 76 1018.1
20260903142519 84 0.0 0.0 0.00 0.00 0.00 80 1018.1
20260903141520 83 0.0 0.0 0.00 0.00 0.00 83 1018.1
20260903140519 81 0.0 0.0 0.00 0.00 0.00 87 1018.2
20260903135520 79 0.0 0.0 0.00 0.00 0.00 92 1018.1
20260903134520 78 0.0 0.0 0.00 0.00 0.00 97 1018.2
20260903133519 77 0.0 0.0 0.00 0.00 0.00 99 1018.2
20260903132519 76 0.0 0.0 0.00 0.00 0.00 100 1018.3
20260903131520 75 0.0 0.0 0.00 0.00 0.00 100 1018.3
20260903130519 74 0.0 0.0 0.00 0.00 0.00 100 1018.4
20260903125520 74 0.0 0.0 0.00 0.00 0.00 100 1018.5
20260903122520 72 0.0 0.0 0.00 0.00 0.00 100 1018.4
20260903121519 71 0.0 0.0 0.00 0.00 0.00 99 1018.3
20260903120519 71 0.0 0.0 0.00 0.00 0.00 99 1018.3
20260903115520 71 0.0 0.0 0.00 0.00 0.00 99 1018.3
20260903114519 70 0.0 0.0 0.00 0.00 0.00 99 1018.3
20260903113640 70 0.0 0.0 0.00 0.00 0.00 99 1018.3
20260903112520 70 0.0 0.0 0.00 0.00 0.00 99 1018.2
20260903111521 70 0.0 0.0 0.00 0.00 0.00 99 1018.2
20260903110520 70 0.0 0.0 0.00 0.00 0.00 99 1018.1
20260903105520 70 0.0 0.0 0.00 0.00 0.00 99 1018.0
20260903104559 71 0.0 0.0 0.00 0.00 0.00 99 1018.0
20260903103520 71 0.0 0.0 0.00 0.00 0.00 99 1018.0
20260903102520 71 0.0 0.0 0.00 0.00 0.00 99 1017.9
20260903101520 71 0.0 0.0 0.00 0.00 0.00 99 1018.1
20260903100600 71 0.0 0.0 0.00 0.00 0.00 99 1018.1
20260903094520 71 0.0 0.0 0.00 0.00 0.00 99 1018.0
20260903093520 71 0.0 0.0 0.00 0.00 0.00 99 1018.1
20260903092520 71 0.0 0.0 0.00 0.00 0.00 99 1018.1
20260903091520 71 0.0 0.0 0.00 0.00 0.00 99 1018.0
20260903090559 71 0.0 0.0 0.00 0.00 0.00 99 1017.9
20260903085520 71 0.0 0.0 0.00 0.00 0.00 99 1017.8
20260903084520 71 0.0 0.0 0.00 0.00 0.00 99 1017.7
20260903083520 71 0.0 0.0 0.00 0.00 0.00 99 1017.7
20260903082559 71 0.0 0.0 0.00 0.00 0.00 99 1017.6
20260903081520 72 0.0 0.0 0.00 0.00 0.00 99 1017.5
20260903080520 72 0.0 0.0 0.00 0.00 0.00 98 1017.6
20260903075519 72 0.0 0.0 0.00 0.00 0.00 98 1017.6
20260903074600 72 0.0 0.0 0.00 0.00 0.00 98 1017.5
20260903073519 72 0.0 0.0 0.00 0.00 0.00 98 1017.5
20260903072520 72 0.0 0.0 0.00 0.00 0.00 98 1017.5
20260903071520 72 0.0 0.0 0.00 0.00 0.00 98 1017.3
20260903070520 72 0.0 0.0 0.00 0.00 0.00 98 1017.3
20260903065520 72 0.0 0.0 0.00 0.00 0.00 98 1017.3
20260903064520 72 0.0 0.0 0.00 0.00 0.00 98 1017.3
20260903063520 72 0.0 0.0 0.00 0.00 0.00 98 1017.3
20260903062520 72 0.0 0.0 0.00 0.00 0.00 98 1017.4
20260903061600 73 0.0 0.0 0.00 0.00 0.00 98 1017.5
20260903060520 73 0.0 0.0 0.00 0.00 0.00 98 1017.4
20260903055520 73 0.0 0.0 0.00 0.00 0.00 98 1017.5
20260903054519 73 0.0 0.0 0.00 0.00 0.00 98 1017.5
20260903053520 73 0.0 0.0 0.00 0.00 0.00 98 1017.5
20260903052520 73 0.0 0.0 0.00 0.00 0.00 98 1017.5
20260903051520 73 0.0 0.0 0.00 0.00 0.00 97 1017.5
20260903050520 73 0.0 0.0 0.00 0.00 0.00 97 1017.3
20260903045520 74 0.0 0.0 0.00 0.00 0.00 97 1017.3
20260903044600 74 0.0 0.0 0.00 0.00 0.00 97 1017.4
20260903043519 74 0.0 0.0 0.00 0.00 0.00 97 1017.4
20260903042600 74 0.0 0.0 0.00 0.00 0.00 97 1017.3
20260903041520 74 0.0 0.0 0.00 0.00 0.00 97 1017.3
20260903040520 74 0.0 0.0 0.00 0.00 0.00 97 1017.3